CELTEE 1

Last updated on Tue Oct 28 2025 00:03:54 GMT+0000 (Coordinated Universal Time)

1 41850U 16067C 25300.48853654 .00006762 00000+0 35208-3 0 9992 2 41850 98.0931 146.2617 0001187 38.5529 321.5787 15.16381126490578
UTC large
Height (km)
Speed (km/s)
/
Latitude / Longitude
Inclination (degrees)
Orbital Period (minutes)
Azimuth
Elevation
Range (km)
Doppler Factor

Next 0 passes for location: London (51.5072 / 0.1276)

Sorry there are no passes over London.